Flag for San Marino Weather past 2 weeks in San Marino, San Marino

37 °F


Feels Like: 37 °F
Forecast: 37 / 47 °F
Wind: 2 mph from Southwest

Location: Rimini Airport

Current Time: Nov 30, 2015 at 8:01:42 AM

Latest Report: Nov 30, 2015 at 6:15 AM

Visibility: 2 mi

Pressure: 30.27 "Hg (27.88 "Hg at 666m altitude)

Humidity: 100%

Dew point: 37 °F

Location of San MarinoLocation

Historic Weather in San Marino — Graph


San Marino temperature yesterday

Maximum temperature yesterday: 54 °F (at 1:45 PM)
Minimum temperature yesterday: 37 °F (at 5:15 AM)
Average temperature yesterday: 44 °F

Past Weeks' High & Low Weather Summary

High66 °F (Nov 20, 10:45 PM)100% (Nov 15, 7:15 AM)30.27 "Hg (Nov 15, 7:15 AM)
Low37 °F (Nov 29, 5:15 AM)58% (Nov 26, 5:45 PM)29.15 "Hg (Nov 21, 1:45 PM)
Average50 °F91%29.94 "Hg
* Reported Nov 15 6:15 AM — Nov 30 6:15 AM, San Marino, Weather by CustomWeather, © 2015

Note: Actual official high and low records may vary slightly from our data, if they occured in-between our weather recording intervals... More about our weather records


San Marino weather history for previous 24 hours

Time TempWeatherWind HumidityBarometerVisibility
6:15 AM
Mon, Nov 30
37 °FFog.2 mph100%30.27 "Hg2 mi
5:45 AM37 °FFog.2 mph100%30.27 "Hg2 mi
5:15 AM37 °FFog.2 mph100%30.27 "Hg2 mi
4:15 AM39 °FFog.3 mph100%30.27 "Hg2 mi
3:45 AM39 °FFog.2 mph100%30.27 "Hg2 mi
3:15 AM39 °FFog.No wind93%30.24 "Hg2 mi
2:45 AM37 °FFog.No wind100%30.24 "Hg1 mi
1:45 AM37 °FFog.2 mph100%30.24 "Hg2 mi
1:15 AM39 °FFog.2 mph100%30.24 "Hg2 mi
12:15 AM39 °FFog.No wind100%30.24 "Hg2 mi
11:45 PM
Sun, Nov 29
39 °FFog.1 mph100%30.27 "Hg2 mi
11:15 PM41 °FFog.No wind93%30.27 "Hg2 mi
10:45 PM39 °FFog.1 mph100%30.27 "Hg2 mi
10:15 PM39 °FFog.5 mph100%30.27 "Hg2 mi
9:45 PM41 °FFog.No wind100%30.27 "Hg2 mi
9:15 PM41 °FFog.No wind100%30.27 "Hg2 mi
8:45 PM41 °FFog.2 mph100%30.27 "Hg3 mi
8:15 PM43 °FFog.No wind100%30.27 "Hg2 mi
7:45 PM45 °FFog.No wind100%30.27 "Hg2 mi
7:15 PM43 °FFog.2 mph100%30.24 "Hg2 mi
6:45 PM45 °FFog.5 mph100%30.24 "Hg2 mi
6:15 PM45 °FFog.5 mph100%30.24 "Hg2 mi
5:45 PM46 °FFog.2 mph93%30.24 "Hg2 mi
5:15 PM46 °FFog.2 mph93%30.24 "Hg2 mi
4:45 PM50 °FFog.1 mph82%30.21 "Hg2 mi
4:15 PM52 °FFog.2 mph82%30.21 "Hg3 mi
3:45 PM52 °FFog.3 mph82%30.21 "Hg3 mi
3:15 PM52 °FClear.3 mph82%30.21 "Hg4 mi
2:45 PM52 °FClear.6 mph82%30.21 "Hg4 mi
2:15 PM54 °FClear.3 mph77%30.21 "Hg4 mi
1:45 PM54 °FClear.6 mph72%30.24 "Hg4 mi
1:15 PM52 °FClear.3 mph77%30.21 "Hg4 mi
12:45 PM52 °FClear.5 mph77%30.21 "Hg4 mi
12:15 PM52 °FClear.1 mph77%30.24 "Hg4 mi
11:45 AM52 °FClear.3 mph72%30.24 "Hg4 mi
11:15 AM50 °FClear.5 mph76%30.24 "Hg4 mi
10:45 AM48 °FClear.3 mph82%30.24 "Hg4 mi
10:15 AM46 °FClear.5 mph87%30.24 "Hg4 mi
9:45 AM46 °FClear.3 mph93%30.24 "Hg4 mi
9:15 AM43 °FClear.1 mph100%30.24 "Hg4 mi
8:45 AM41 °FClear.No wind100%30.24 "Hg4 mi
Weather by CustomWeather, © 2015

See weather overviewHow to use our weather pages